Weather History for Dickinson, ND

Change the Weather History Date:

Friday, October 7, 2011

  Actual Average Record
Temperature  
Mean Temperature 50 °F 48 °F  
Max Temperature 57 °F 61 °F 86 °F (1920)
Min Temperature 43 °F 34 °F 10 °F (1946)
Degree Days  
Heating Degree Days 15 17  
Month to date heating degree days 18 113  
Since 1 July heating degree days 254 467  
Cooling Degree Days 0 0  
Month to date cooling degree days 16 0  
Year to date cooling degree days 358 418  
Moisture  
Dew Point 48 °F    
Average Humidity 82    
Maximum Humidity 100    
Minimum Humidity 63    
Precipitation  
Precipitation 0.02 in 0.04 in 1.13 in (1977)
Month to date precipitation 0.12 0.33  
Year to date precipitation 17.11 14.09  
Sea Level Pressure  
Sea Level Pressure 29.42 in    
Wind  
Wind Speed 18 mph (SSW)    
Max Wind Speed 44 mph    
Max Gust Speed 54 mph    
Visibility 9 miles    
Events Rain    
T = Trace of Precipitation, MM = Missing Value Source: NWS Daily Summary

Daily Weather History Graph

Daily Weather History Graph

Search for Another Location

Airport:

Trip Planner

Search our weather history database for the weather conditions in past years. The results will help you decide how hot, cold, wet, or windy it might be!

Date:

Astronomy

Oct. 07, 2011 Rise Set
Actual Time 6:57 AM MDT 6:19 PM MDT
Civil Twilight 6:27 AM MDT 6:49 PM MDT
Nautical Twilight 5:52 AM MDT 7:24 PM MDT
Astronomical Twilight 5:16 AM MDT 8:00 PM MDT
Moon 4:15 PM MDT (10/7) 2:34 AM MDT (10/7)
Length of Visible Light 12h 22m
Length of Day
11h 21m
Waxing Gibbous, 84% of the Moon is Illuminated
Oct 7
Waxing Gibbous
Oct 11
Full
Oct 19
Last Quarter
Oct 26
New
Nov 2
First Quarter

Hourly Weather History & Observations

Time (MDT) Temp. Windchill Dew Point Humidity Pressure Visibility Wind Dir Wind Speed Gust Speed Precip Events Conditions
12:42 AM 55.4 °F - 55.4 °F 100% 29.41 in 8.0 mi East 6.9 mph - N/A   Mostly Cloudy
12:56 AM 55.9 °F - 55.0 °F 97% 29.38 in 7.0 mi East 8.1 mph - N/A   Overcast
1:34 AM 55.4 °F - 55.4 °F 100% 29.41 in 9.0 mi SE 9.2 mph - N/A   Scattered Clouds
1:56 AM 55.0 °F - 54.0 °F 96% 29.37 in 8.0 mi SE 6.9 mph - N/A   Clear
2:54 AM 53.6 °F - 53.6 °F 100% 29.33 in 4.0 mi East 5.8 mph - 0.01 in   Mostly Cloudy
2:56 AM 54.0 °F - 53.1 °F 97% 29.30 in 4.0 mi East 5.8 mph - 0.01 in   Mostly Cloudy
3:18 AM 53.6 °F - 53.6 °F 100% 29.28 in 5.0 mi East 8.1 mph - N/A   Overcast
3:47 AM 55.4 °F - 53.6 °F 94% 29.29 in 7.0 mi ESE 8.1 mph - N/A   Overcast
3:56 AM 55.0 °F - 54.0 °F 96% 29.25 in 7.0 mi ESE 9.2 mph - N/A   Overcast
4:14 AM 55.4 °F - 53.6 °F 94% 29.33 in 7.0 mi SSW 39.1 mph 54.1 mph 0.00 in Rain Light Rain
4:24 AM 51.8 °F - 48.2 °F 88% 29.33 in 9.0 mi SW 33.4 mph 50.6 mph 0.00 in Rain Light Rain
4:56 AM 50.0 °F - 48.0 °F 93% 29.31 in 10.0 mi SSW 18.4 mph 26.5 mph 0.01 in   Mostly Cloudy
5:16 AM 50.0 °F - 48.2 °F 94% 29.33 in 10.0 mi SW 19.6 mph 31.1 mph N/A   Mostly Cloudy
5:23 AM 48.2 °F - 46.4 °F 93% 29.33 in 10.0 mi SW 20.7 mph - N/A   Scattered Clouds
5:56 AM 46.9 °F - 43.0 °F 86% 29.31 in 10.0 mi SSW 12.7 mph - N/A   Clear
6:56 AM 44.1 °F 38.6 °F 42.1 °F 93% 29.33 in 10.0 mi SSE 10.4 mph - N/A   Clear
7:56 AM 45.0 °F 40.1 °F 39.9 °F 82% 29.33 in 10.0 mi SSE 9.2 mph - N/A   Clear
8:56 AM 48.0 °F - 42.1 °F 80% 29.30 in 10.0 mi South 16.1 mph - N/A   Mostly Cloudy
9:56 AM 48.9 °F - 41.0 °F 74% 29.28 in 10.0 mi South 17.3 mph 25.3 mph N/A   Overcast
10:56 AM 51.1 °F - 39.0 °F 63% 29.25 in 10.0 mi South 21.9 mph 31.1 mph N/A   Mostly Cloudy
11:56 AM 52.0 °F - 42.1 °F 69% 29.25 in 10.0 mi SSW 20.7 mph 28.8 mph 0.00 in Rain Light Rain
12:46 PM 51.8 °F - 44.6 °F 76% 29.27 in 10.0 mi SSW 19.6 mph 24.2 mph 0.00 in   Overcast
12:56 PM 50.0 °F - 46.9 °F 89% 29.26 in 5.0 mi SSW 16.1 mph - 0.00 in   Overcast
1:09 PM 50.0 °F - 48.2 °F 94% 29.27 in 3.0 mi SSW 15.0 mph - 0.00 in Rain Light Rain
1:56 PM 54.0 °F - 48.9 °F 83% 29.27 in 10.0 mi West 17.3 mph 26.5 mph 0.00 in   Overcast
2:56 PM 55.9 °F - 48.0 °F 75% 29.33 in 10.0 mi West 24.2 mph 33.4 mph N/A   Overcast
3:44 PM 55.4 °F - 50.0 °F 82% 29.40 in 10.0 mi West 23.0 mph 34.5 mph 0.00 in Rain Light Rain
3:56 PM 55.0 °F - 50.0 °F 83% 29.40 in 10.0 mi WSW 25.3 mph 33.4 mph 0.00 in   Overcast
4:13 PM 55.4 °F - 48.2 °F 77% 29.43 in 10.0 mi West 23.0 mph 33.4 mph N/A   Overcast
4:56 PM 55.0 °F - 48.0 °F 77% 29.47 in 10.0 mi WSW 25.3 mph 35.7 mph N/A   Overcast
5:56 PM 53.1 °F - 48.0 °F 83% 29.53 in 10.0 mi WSW 23.0 mph 29.9 mph 0.00 in   Overcast
6:56 PM 52.0 °F - 48.9 °F 89% 29.60 in 9.0 mi WSW 21.9 mph 29.9 mph 0.00 in Rain Light Rain
7:09 PM 51.8 °F - 48.2 °F 88% 29.59 in 10.0 mi SW 18.4 mph - 0.00 in   Overcast
7:52 PM 51.8 °F - 48.2 °F 88% 29.63 in 10.0 mi WSW 20.7 mph 27.6 mph 0.00 in   Overcast
7:56 PM 51.1 °F - 48.0 °F 89% 29.65 in 10.0 mi WSW 20.7 mph 27.6 mph 0.00 in   Overcast
8:08 PM 51.8 °F - 48.2 °F 88% 29.64 in 10.0 mi WSW 18.4 mph 25.3 mph N/A   Overcast
8:56 PM 52.0 °F - 48.0 °F 86% 29.68 in 10.0 mi WSW 21.9 mph 31.1 mph N/A   Overcast
9:54 PM 51.8 °F - 48.2 °F 88% 29.69 in 10.0 mi West 20.7 mph - N/A   Overcast
9:56 PM 52.0 °F - 48.0 °F 86% 29.70 in 10.0 mi West 20.7 mph - N/A   Overcast
10:56 PM 52.0 °F - 46.9 °F 83% 29.74 in 10.0 mi West 20.7 mph 26.5 mph N/A   Overcast
11:56 PM 52.0 °F - 46.0 °F 80% 29.77 in 10.0 mi West 20.7 mph 27.6 mph N/A   Overcast